Theta_e
345 346 346 345 345 347 347 347 354 355 355 345 340 345 351 359 360 364 365 364 365 358 353 351 348 349 353 352 353 354 354 355 355 351 349 354 353 352 353 351 352 352 350 349 350 349 349 350 350 350 349 348 348 350 351 351 350 350 349 348 347 346 343 341 341 345 347 346 347 350 349 348 348 348 348 348 348 349 352 353 353 352 352 350 350 351 351 352 351 352 351 351 350 349 349 349 349
349 349 345 345 346 348 347 348 355 349 345 338 339 351 355 363 362 363 365 364 363 356 351 349 348 350 352 350 350 352 354 351 352 352 351 352 351 352 352 351 351 350 349 349 349 347 346 346 346 348 350 349 348 350 350 348 346 345 343 342 342 341 341 345 349 350 349 348 349 350 349 349 349 348 346 345 346 350 353 353 352 351 351 351 350 351 351 352 352 352 351 351 350 349 348 348 349
350 347 345 346 346 349 349 351 354 343 337 334 339 357 361 363 363 363 364 361 357 351 350 349 352 353 349 352 352 353 353 350 347 348 349 350 351 351 352 352 351 351 351 351 350 349 348 346 343 345 347 347 346 345 343 342 342 341 342 342 344 345 348 350 352 352 352 351 352 351 350 351 348 345 343 344 347 351 353 353 352 350 350 351 351 351 351 352 352 352 352 351 351 350 349 349 349
350 345 345 345 347 352 354 356 359 344 335 334 341 359 363 361 363 363 362 357 352 349 350 352 355 353 352 353 352 351 352 349 348 348 349 350 351 351 352 352 352 352 352 352 350 350 350 346 345 344 344 344 344 344 343 345 346 346 347 348 349 351 353 353 353 353 353 353 353 352 352 352 349 346 345 347 349 351 352 353 352 350 350 351 351 351 351 352 351 352 352 351 350 350 350 349 349
349 345 345 348 353 357 360 361 358 345 338 340 346 360 363 360 362 361 359 356 351 350 351 352 355 353 351 352 351 352 350 348 350 350 350 351 350 351 352 352 353 353 353 352 351 351 350 345 346 347 346 347 347 348 348 349 349 350 350 351 353 353 354 354 353 354 353 354 353 353 353 352 351 349 350 351 352 352 352 352 353 351 350 351 351 351 351 351 351 351 351 351 350 350 350 349 350
348 346 345 351 357 357 360 354 345 343 347 353 353 358 361 360 361 361 358 355 351 350 351 352 353 353 352 351 350 350 349 349 350 350 350 352 351 352 352 352 353 352 353 352 351 353 350 347 348 349 349 350 349 349 350 351 351 351 352 353 354 354 353 352 353 354 354 353 353 353 353 352 351 351 352 352 353 353 352 352 353 352 351 351 351 351 350 351 351 351 350 350 351 351 350 350 350
348 347 346 353 357 358 361 349 340 345 351 358 358 360 362 361 362 360 360 356 355 351 350 352 351 353 354 351 351 349 350 350 350 350 351 351 351 352 353 352 352 351 353 352 352 352 349 347 348 349 350 351 350 350 351 352 352 351 353 353 353 353 352 351 353 353 353 353 353 353 352 351 351 352 353 352 353 353 353 353 352 352 351 349 350 350 351 351 351 350 350 350 350 351 350 350 350
348 351 350 357 363 361 359 346 345 352 352 356 358 362 362 361 361 361 362 358 357 354 350 351 350 357 356 351 353 351 350 350 351 351 351 351 352 353 353 352 352 352 352 352 353 351 347 347 350 349 350 351 351 351 352 352 352 353 353 353 353 354 352 352 353 352 353 352 352 353 352 352 352 353 353 353 353 353 353 353 352 352 351 350 350 350 351 351 351 351 350 350 350 350 349 349 350
349 355 356 358 363 356 348 345 348 354 357 357 358 362 361 361 359 360 360 357 357 354 352 350 351 359 356 354 355 351 350 351 351 352 351 351 352 353 352 351 353 351 351 352 352 351 348 348 350 350 350 351 352 352 351 352 353 354 353 353 354 354 353 353 353 351 353 352 351 352 352 353 353 353 353 352 352 353 353 352 351 351 352 351 350 351 351 350 351 351 350 351 351 350 349 349 349
352 355 358 361 358 345 337 342 347 353 359 358 359 361 361 360 360 359 357 357 356 355 353 349 350 357 356 356 354 351 350 352 351 352 351 351 352 352 353 352 352 351 351 351 351 352 350 349 350 350 351 351 352 352 352 353 354 354 354 353 352 353 354 354 353 353 353 352 351 351 352 353 353 352 352 352 352 352 352 351 350 351 352 351 351 351 351 351 351 350 350 351 351 351 351 350 349
357 355 357 358 349 337 333 338 346 354 358 358 360 360 360 359 360 359 358 357 354 355 353 350 354 354 354 356 354 352 352 351 352 352 351 351 352 353 353 352 352 350 350 350 350 352 351 350 350 351 351 352 351 352 353 354 354 354 354 353 352 353 353 353 353 353 352 351 351 352 353 353 353 352 352 351 351 350 350 350 351 351 352 352 351 351 350 350 350 350 349 349 350 350 351 351 350
359 360 359 354 345 340 341 341 347 355 358 359 361 361 357 357 360 360 359 356 355 356 354 354 354 353 355 356 353 352 352 351 351 351 351 351 352 352 352 352 351 350 350 350 350 351 351 352 351 350 351 352 351 352 353 354 353 353 353 353 353 352 353 353 353 352 352 352 352 353 352 352 352 351 351 350 350 350 351 351 351 352 352 352 352 351 350 350 351 351 349 349 349 349 350 350 350
358 362 359 353 350 349 348 344 348 354 356 359 359 359 356 356 360 360 358 355 355 357 354 353 351 353 356 355 353 351 351 352 352 352 352 351 351 352 352 353 352 350 350 350 350 350 351 352 352 351 351 351 351 352 353 353 352 351 351 352 351 351 351 352 353 352 353 353 351 351 351 351 351 350 350 349 350 351 351 351 352 352 352 351 351 351 351 350 351 351 350 349 349 349 350 350 350
356 359 357 355 355 354 351 346 347 347 349 358 358 357 356 356 359 357 358 356 357 356 354 353 350 354 356 354 353 349 350 351 353 352 352 352 351 352 352 353 352 351 350 350 350 350 350 351 352 353 352 352 352 352 351 351 350 350 350 350 350 351 351 351 351 352 353 353 351 351 351 352 351 351 351 351 351 351 350 352 353 352 352 352 351 350 351 350 350 350 349 350 350 349 349 348 350
354 352 355 356 353 351 350 348 347 344 347 358 357 355 357 356 356 354 356 357 357 353 351 353 352 355 356 354 354 350 350 351 353 352 352 352 351 352 352 352 352 351 350 350 349 349 350 350 352 353 353 355 354 353 351 350 349 350 350 350 350 351 351 350 350 352 353 353 352 352 353 352 351 351 352 352 352 352 351 351 351 351 351 351 351 351 350 350 350 350 350 351 350 349 348 348 348
352 351 355 354 347 344 346 349 349 346 350 359 356 355 359 358 356 356 355 354 355 351 350 352 351 353 353 352 351 349 350 352 352 353 352 353 352 353 352 352 352 351 350 349 349 348 349 350 352 354 355 355 354 354 353 351 350 350 350 350 350 351 352 351 351 352 353 353 354 353 352 352 352 352 352 352 352 351 351 351 350 350 350 350 351 350 350 350 350 350 350 349 348 348 348 347 348
349 353 356 348 345 343 346 352 350 347 353 359 358 357 362 360 358 359 356 353 354 351 351 352 350 351 350 350 351 351 351 351 352 352 352 352 351 352 351 351 351 351 350 349 349 348 349 350 352 354 355 353 353 354 354 353 349 349 350 349 350 351 352 351 351 352 353 353 352 352 353 355 355 355 354 353 351 350 349 350 351 350 350 349 349 349 350 350 350 349 349 348 346 348 349 348 348
348 354 351 344 348 348 349 353 348 350 354 357 358 357 361 361 357 356 355 356 355 352 351 350 350 350 350 351 351 351 351 352 352 352 351 352 351 352 350 350 351 351 351 350 348 348 348 350 352 352 353 353 353 354 355 354 351 352 352 350 350 350 350 351 351 353 354 353 352 353 356 356 356 356 357 355 354 352 349 350 351 350 349 349 348 349 351 351 351 350 349 346 345 349 351 351 350
348 352 347 344 352 353 349 350 349 349 352 352 357 355 357 359 355 354 357 357 353 354 353 351 352 350 349 351 351 351 351 351 351 352 352 351 351 351 350 350 350 351 350 350 348 348 348 350 351 351 351 353 354 354 355 354 354 355 355 354 353 351 352 354 355 356 355 355 355 356 356 355 356 357 356 355 353 352 349 348 349 348 348 347 347 349 349 349 349 349 347 346 347 350 353 352 352
347 349 348 348 353 353 349 349 349 349 350 352 355 354 356 354 353 354 356 356 354 356 354 353 353 350 348 348 351 352 351 351 351 352 351 351 351 350 350 349 350 350 350 349 348 348 348 350 351 351 351 353 353 353 355 355 355 355 356 356 355 354 355 357 357 357 357 356 355 355 354 355 356 355 352 352 353 352 349 348 348 349 350 349 351 352 350 348 350 349 347 350 351 351 352 351 351
346 346 348 350 351 351 351 349 348 348 349 354 354 354 355 353 354 354 355 357 355 355 353 354 353 351 348 347 350 352 351 351 351 351 351 351 351 351 350 349 349 351 349 348 349 348 349 350 350 351 352 353 353 353 355 355 354 354 355 356 356 355 356 356 357 356 357 355 354 353 353 354 354 353 352 353 356 356 354 353 353 354 354 353 354 355 353 352 353 352 351 352 352 350 350 350 350
346 346 346 348 349 351 351 349 348 348 348 353 354 354 355 352 353 353 354 358 355 353 352 353 351 349 349 348 350 351 350 351 351 351 350 351 351 351 351 348 349 350 349 349 348 349 349 350 350 351 352 353 352 353 355 355 354 354 355 356 355 355 355 355 355 355 355 354 353 352 351 353 354 354 353 354 355 355 355 355 355 356 356 354 354 354 353 354 353 352 352 352 351 349 349 350 350
343 345 345 347 348 351 351 348 348 347 346 351 353 352 354 353 354 354 354 355 353 351 351 351 350 350 350 350 350 349 349 349 350 351 350 350 351 351 351 350 350 350 350 350 348 349 349 349 350 350 351 353 353 353 354 354 354 354 355 355 355 355 355 355 355 354 355 354 353 350 350 350 351 353 353 353 352 353 354 354 354 354 354 353 352 352 354 354 354 353 353 353 352 349 349 350 350
340 340 344 345 345 349 348 349 349 346 344 347 348 350 352 353 354 353 353 353 351 351 351 351 351 352 351 349 347 347 348 349 350 350 349 349 349 351 351 351 351 351 350 350 348 348 349 349 350 350 352 353 352 353 353 353 353 353 354 354 354 355 355 354 353 355 355 354 353 351 349 348 350 350 351 351 350 350 351 351 351 351 351 351 351 352 354 354 355 354 355 354 353 350 349 350 348
337 336 338 343 344 345 346 347 347 344 344 343 344 348 351 351 352 353 353 352 351 351 351 350 351 351 350 347 346 347 348 349 350 349 348 348 348 349 350 350 350 351 351 350 349 349 349 350 350 350 352 352 352 353 353 353 353 353 353 353 354 354 354 353 353 354 353 352 352 352 351 348 349 349 350 351 350 349 349 349 349 348 350 351 352 354 354 355 355 354 354 354 353 352 350 349 348
334 333 334 338 341 343 343 344 344 342 344 343 344 348 349 349 350 352 352 352 351 351 352 350 350 350 349 348 346 346 346 347 350 348 347 348 349 350 350 349 349 350 350 350 349 349 349 349 350 350 352 352 352 352 352 352 353 352 352 352 353 354 353 353 354 352 351 351 351 353 352 352 351 351 352 352 351 350 349 348 348 348 349 352 354 354 354 355 354 353 354 353 353 353 351 350 348
331 333 332 335 336 339 340 341 343 342 343 343 344 347 348 348 351 352 350 351 352 352 353 351 351 350 349 348 346 347 347 348 349 348 347 348 349 350 349 349 348 350 350 349 349 349 349 349 350 351 351 352 351 351 351 351 352 351 351 352 351 353 353 353 352 351 351 351 352 353 354 354 354 354 355 355 353 352 351 351 351 351 352 354 356 354 354 355 354 354 354 353 353 353 353 352 349
329 332 332 332 332 334 336 338 339 341 344 342 342 345 347 348 351 352 350 351 352 353 354 352 352 351 350 349 347 349 348 349 348 348 348 348 348 349 348 348 347 348 349 349 350 350 350 348 349 351 351 352 351 350 351 351 351 351 352 351 351 353 353 351 350 351 352 352 353 353 353 354 355 355 357 356 355 354 354 354 354 355 356 356 356 355 355 355 355 355 354 354 354 354 353 352 350
326 328 328 329 331 334 333 335 339 340 343 341 342 342 346 350 351 350 351 351 353 354 354 353 353 352 351 350 348 349 349 349 348 348 349 348 348 348 348 348 347 348 349 349 351 351 349 348 349 350 350 351 351 350 350 351 351 352 351 351 351 352 351 349 349 350 351 353 354 353 352 353 354 355 357 357 356 354 355 355 355 355 356 356 356 356 356 355 355 354 354 355 354 354 353 352 351
324 324 325 326 327 330 334 336 339 341 341 341 343 336 341 351 348 348 351 351 352 354 355 354 353 353 351 350 348 348 349 348 349 348 348 348 348 348 348 349 348 349 349 350 351 351 349 348 349 350 351 351 351 351 351 352 352 352 350 350 351 351 349 349 349 350 351 352 352 352 352 353 353 355 356 357 357 355 354 355 355 355 356 356 356 356 356 354 353 354 353 354 354 353 353 352 350
324 322 324 324 319 322 333 337 338 342 340 341 342 332 338 350 347 347 350 350 352 354 355 354 353 354 351 351 350 348 348 348 349 349 348 349 348 349 349 349 350 350 351 351 352 352 349 348 349 350 351 351 352 352 352 352 352 351 350 350 350 349 348 349 349 349 351 351 351 352 353 353 354 355 356 357 357 356 354 354 354 354 356 356 356 356 355 354 354 354 353 353 353 352 352 351 349
324 319 316 321 317 321 335 338 339 342 340 342 342 335 340 350 346 348 351 350 353 353 355 356 354 355 352 352 351 348 348 349 349 349 348 349 349 350 350 350 350 351 353 353 353 352 350 349 350 350 351 352 353 353 354 353 353 352 351 351 350 348 347 348 346 347 348 349 350 352 353 354 356 355 354 355 357 356 355 354 354 356 357 356 355 356 355 355 355 354 353 353 353 353 352 349 348
323 319 312 316 317 319 328 335 339 341 341 343 342 340 345 351 346 348 351 350 351 352 354 355 355 355 354 353 352 349 348 349 349 350 350 350 350 350 351 351 352 352 354 354 353 352 352 351 350 349 350 352 353 354 354 354 354 354 353 352 351 348 346 345 345 346 345 346 347 349 353 354 356 356 352 354 357 357 355 355 354 357 356 356 356 356 356 355 353 353 355 354 353 354 351 347 346
317 320 315 316 318 318 320 330 337 339 342 345 344 344 347 350 346 347 350 350 352 352 352 355 355 355 355 354 353 351 350 349 349 351 352 351 351 351 352 353 352 353 354 354 354 353 353 352 350 348 350 352 353 354 355 355 354 354 353 352 351 349 346 345 345 345 346 346 345 349 354 355 356 357 353 353 357 357 356 356 355 356 356 358 357 356 357 356 353 353 355 355 355 354 350 346 345
312 315 315 315 318 319 320 326 335 338 340 344 345 345 347 346 345 347 349 350 351 351 352 354 355 355 356 356 353 353 352 350 350 352 352 351 352 352 352 353 353 354 354 353 354 354 353 353 351 349 350 352 353 355 355 354 354 353 352 350 350 349 346 345 345 345 347 347 348 351 355 355 355 357 356 355 358 357 357 356 356 357 357 358 358 356 356 356 356 355 355 357 357 354 349 347 345
317 317 318 315 315 319 324 328 333 338 339 342 344 343 346 346 345 347 347 348 351 352 351 353 355 356 357 356 355 354 353 351 352 352 352 352 352 352 353 353 354 354 354 353 355 355 354 354 352 351 351 351 353 356 355 353 353 352 349 347 348 347 345 345 346 346 347 349 351 353 355 355 355 357 356 357 357 357 358 357 357 358 357 358 358 357 356 355 357 358 357 359 358 353 349 347 345
323 320 319 318 316 318 326 329 330 336 337 339 343 343 346 346 344 347 346 348 350 349 351 354 354 356 356 357 356 355 354 352 353 353 352 353 353 352 353 353 352 353 354 355 355 356 355 354 354 353 351 350 352 354 353 350 351 350 347 345 344 345 345 345 345 344 345 348 351 353 355 355 355 356 356 356 356 357 357 357 358 358 357 358 359 358 358 358 359 359 358 358 357 355 351 347 344
323 321 318 318 318 320 325 328 329 333 333 335 343 343 344 346 344 345 345 347 349 348 350 353 355 356 356 358 357 356 355 353 353 353 354 354 353 353 353 352 353 353 354 355 355 356 355 355 355 354 352 351 351 352 352 349 349 348 345 344 343 343 344 345 344 343 344 347 351 354 355 355 356 356 356 356 356 356 357 357 357 358 358 359 360 360 360 361 361 359 358 357 355 354 352 348 345
321 320 316 315 317 320 324 328 330 331 330 333 341 340 340 344 344 344 344 346 348 348 348 352 355 357 356 357 357 357 356 355 354 353 353 354 353 353 354 353 353 353 354 354 356 356 356 355 355 355 353 351 350 350 351 349 349 347 345 344 342 341 344 344 342 343 343 345 350 354 354 355 356 357 357 356 356 357 357 357 357 357 359 360 360 361 361 361 362 360 358 356 355 353 353 350 347
321 318 314 313 318 319 316 323 330 331 329 332 337 336 337 342 342 343 343 344 347 347 348 350 353 356 357 357 356 357 357 356 355 352 353 354 354 354 354 354 353 353 353 354 355 355 356 356 355 356 354 353 351 350 349 348 348 349 348 347 345 343 345 345 344 344 345 345 349 353 354 356 356 356 357 357 357 357 357 358 356 357 358 358 359 362 362 360 359 360 358 358 357 353 353 351 348
318 318 315 315 320 321 319 324 330 330 328 331 332 327 329 338 340 342 341 343 346 347 348 350 352 355 355 355 356 356 357 356 356 354 353 354 355 355 355 354 354 353 354 354 354 355 355 356 356 357 356 354 352 351 350 349 350 351 350 349 349 347 347 348 346 344 345 345 346 351 354 356 356 356 356 357 357 357 358 358 356 356 357 358 358 359 360 359 358 359 358 359 358 355 353 352 350
315 319 318 318 321 324 324 328 327 321 320 326 328 319 321 333 337 341 340 342 345 346 348 350 351 355 356 356 356 355 357 356 355 355 353 354 355 356 355 355 355 353 354 354 354 354 354 355 357 357 357 355 354 353 350 350 352 351 350 349 348 347 347 346 344 342 342 342 343 347 353 355 355 355 356 357 357 358 358 358 356 356 356 357 356 357 358 358 358 358 358 358 358 357 355 354 351
312 317 321 320 321 323 326 327 322 316 316 326 328 319 317 324 331 340 341 341 344 345 347 348 351 355 356 356 356 356 356 355 355 355 354 355 355 357 357 356 355 354 353 353 354 353 354 355 358 358 357 356 355 354 353 352 353 352 349 347 345 345 344 343 343 340 338 341 341 344 350 355 356 355 355 356 356 358 358 358 357 356 355 355 355 356 357 357 356 357 358 359 359 358 357 356 353
312 319 321 320 319 320 324 325 320 318 319 325 328 323 317 317 326 338 341 340 344 345 347 349 350 354 355 355 356 356 356 356 356 356 354 354 356 358 357 356 356 354 354 354 353 353 354 356 358 358 358 357 356 355 354 353 353 352 350 347 344 344 342 342 345 343 340 342 344 344 349 356 357 355 354 356 357 358 359 358 357 356 356 357 355 355 355 354 356 357 359 360 361 359 358 356 355
317 320 321 321 321 319 321 322 319 320 320 317 321 324 320 316 324 337 341 339 340 344 347 348 349 354 356 355 354 356 357 356 356 356 354 355 357 357 357 356 357 355 354 354 354 354 355 356 358 359 359 358 357 356 355 354 353 353 352 349 346 345 342 342 346 346 344 347 348 347 351 356 358 357 355 356 357 357 358 359 358 358 357 357 356 355 354 353 355 358 359 360 360 359 358 356 356
318 320 322 323 322 320 319 318 317 318 319 315 317 320 319 316 320 328 334 333 337 343 346 346 349 351 354 355 354 355 356 356 355 355 355 356 358 358 357 357 357 356 355 355 356 355 355 357 358 359 359 358 358 356 356 355 354 355 354 352 350 349 347 344 346 349 350 351 352 350 353 355 357 358 356 356 357 357 358 359 358 359 358 357 357 355 355 355 355 357 358 360 360 359 358 356 355
320 320 321 322 323 321 319 317 315 315 317 317 317 318 318 316 318 324 330 332 336 343 343 345 347 349 353 354 353 353 355 357 356 354 355 357 358 357 357 357 358 356 356 355 356 356 356 357 359 360 360 359 358 357 356 356 355 355 355 354 353 352 351 349 350 352 354 354 354 351 352 355 355 356 357 357 358 357 357 358 358 358 358 357 357 356 356 356 355 354 356 358 360 360 359 358 356
321 320 318 318 318 319 317 316 315 315 315 316 317 319 318 314 317 325 332 335 337 339 339 343 345 346 350 352 351 351 354 355 356 355 355 356 358 357 358 358 358 358 356 356 356 357 356 358 359 360 360 359 358 358 357 357 356 355 355 356 355 355 354 353 353 354 356 356 353 351 353 355 355 356 356 357 358 357 356 358 358 357 358 358 358 357 356 356 356 354 354 357 359 359 359 359 357
321 320 316 314 314 318 318 316 316 315 314 316 318 318 316 315 321 328 333 335 336 336 336 340 343 345 350 351 351 352 352 354 355 356 356 355 356 357 358 359 359 359 357 357 356 356 357 358 359 360 360 360 359 358 358 356 356 356 356 356 356 356 355 355 354 355 356 356 354 352 354 356 356 356 357 357 357 357 357 358 358 358 358 358 358 357 356 356 356 355 355 356 357 358 359 359 358
320 317 314 313 314 319 322 318 317 316 315 316 318 318 315 314 322 330 332 332 335 336 336 338 339 344 347 350 350 350 352 352 355 356 355 355 356 357 359 359 359 359 358 358 357 357 358 358 360 360 361 360 359 358 358 357 357 356 356 357 356 357 356 356 356 354 355 356 354 354 353 354 355 355 356 357 357 356 357 359 359 358 358 359 358 358 357 356 356 356 356 356 355 357 358 358 358
321 320 318 315 313 317 321 318 317 317 315 316 318 317 314 314 321 329 330 330 333 333 334 336 337 339 344 347 346 348 349 351 353 355 355 355 356 358 359 359 359 360 359 358 357 357 358 358 359 361 361 361 359 359 358 358 358 357 357 357 357 357 357 357 356 354 355 356 355 354 354 352 352 352 354 356 357 357 357 359 359 358 359 358 358 357 357 356 356 357 357 356 357 357 358 358 358
322 323 318 315 315 317 317 316 316 315 315 316 316 316 318 320 327 330 329 328 330 331 333 334 334 337 340 343 343 346 348 350 352 354 355 355 358 360 360 359 358 359 358 358 358 358 359 359 360 361 361 361 360 359 359 358 358 358 358 358 358 358 357 357 357 357 356 356 356 355 355 354 352 353 355 358 359 358 358 358 358 358 358 358 358 357 357 357 356 357 356 357 357 356 357 358 358
321 320 316 318 322 320 316 315 316 315 316 318 316 316 320 322 327 328 328 328 328 330 331 330 332 334 337 340 342 344 346 348 350 353 354 354 357 359 358 358 358 359 358 359 358 358 360 359 360 361 362 362 360 360 359 359 358 358 358 359 358 357 358 357 357 358 356 357 357 357 356 357 355 354 356 358 359 359 358 358 358 357 357 358 358 358 357 357 357 357 356 357 357 356 357 358 358
320 318 318 321 323 322 318 316 316 317 317 318 314 315 316 316 320 327 327 327 327 329 329 330 330 331 334 336 339 343 345 346 349 352 355 354 354 357 359 358 357 358 358 358 358 359 359 360 361 361 361 361 361 360 360 359 359 359 359 360 359 359 359 358 357 358 357 357 358 358 357 358 358 356 356 357 358 358 359 359 357 357 357 358 357 357 358 358 358 357 356 357 358 357 358 358 358
322 321 324 322 317 318 318 317 318 318 317 317 314 314 314 313 317 324 326 327 326 327 327 329 329 330 331 332 337 342 343 345 349 351 354 354 353 356 357 357 357 357 358 358 359 359 359 360 360 361 361 361 360 360 359 359 359 359 359 359 359 359 359 359 357 358 359 357 358 359 358 358 358 358 357 357 357 358 359 360 359 357 357 357 358 357 358 358 358 357 356 356 357 359 359 358 358
323 324 326 324 319 318 318 318 319 318 318 317 316 314 313 316 322 325 328 329 327 328 329 328 328 329 330 330 332 339 341 343 346 349 352 353 353 355 357 357 355 357 357 358 358 358 358 359 360 360 360 360 360 360 359 359 359 359 359 360 360 360 359 359 359 358 359 359 358 359 358 358 359 359 359 359 358 358 359 359 358 356 355 356 357 357 356 358 358 357 357 355 356 358 359 359 359
321 320 321 322 321 321 320 319 318 318 317 317 318 316 314 321 328 328 328 330 328 330 329 328 329 329 330 331 333 337 341 342 341 345 349 351 352 354 356 355 355 355 357 358 357 358 357 358 359 359 360 359 360 359 359 359 359 359 359 359 360 360 359 359 359 358 359 359 359 359 359 359 359 359 359 359 360 359 358 359 358 357 356 356 357 358 356 357 359 359 358 357 356 358 359 360 359
322 320 319 320 320 319 319 319 318 316 316 316 318 316 316 323 330 328 327 329 327 328 328 328 330 329 330 331 333 337 339 340 341 341 345 348 352 354 355 355 355 355 356 356 356 357 357 357 358 358 358 359 358 358 359 360 359 359 359 359 360 360 359 359 359 358 359 360 360 360 359 359 359 359 359 360 360 359 359 359 358 358 358 357 359 359 358 357 358 359 359 358 357 359 360 360 360
Wind_Speed
13 12 12 10 11 9 6 5 3 3 4 3 2 1 3 2 3 4 4 5 5 6 4 6 10 7 3 4 8 8 9 6 5 3 5 11 23 25 22 24 22 18 20 20 20 20 20 20 19 21 21 19 19 19 18 17 17 17 17 17 17 17 16 16 15 15 14 14 14 14 14 14 14 13 13 13 12 12 11 12 12 12 12 12 12 12 11 10 11 13 13 13 14 15 14 14 14
13 12 11 10 10 7 3 3 4 2 4 3 2 2 3 3 3 4 5 3 5 7 6 8 10 6 3 6 7 7 9 11 10 8 11 22 26 22 24 25 24 22 21 21 20 19 18 19 19 19 19 18 18 18 18 17 18 17 17 17 17 17 17 16 15 14 14 15 14 14 14 13 13 13 13 12 12 12 12 12 12 11 12 12 11 12 11 11 12 13 12 13 14 14 14 14 14
13 11 11 10 7 5 1 2 4 2 3 1 4 4 3 3 4 4 4 4 7 9 10 10 8 5 7 9 5 4 7 8 12 13 14 25 22 20 25 24 25 24 22 22 20 20 19 19 19 18 19 19 18 18 19 19 19 18 18 18 17 16 15 15 15 15 14 14 14 14 14 13 13 13 12 12 12 11 11 12 11 12 12 11 11 12 11 11 12 12 12 12 13 13 13 13 14
12 9 11 9 4 4 2 3 3 3 2 1 3 4 2 4 7 6 5 6 9 11 11 11 7 2 5 8 6 7 9 7 13 14 14 20 20 23 26 24 24 22 21 21 21 21 22 22 21 20 20 20 19 19 19 18 18 18 17 16 16 15 14 14 15 15 14 13 13 13 13 13 12 12 12 12 11 11 11 11 11 11 11 11 11 12 11 11 11 12 12 12 13 12 12 13 13
11 8 9 5 3 2 2 3 2 4 1 2 2 5 3 5 8 8 7 8 10 11 11 9 7 4 4 7 4 5 9 9 14 16 16 19 24 26 25 24 23 21 21 20 21 21 22 24 22 21 20 20 19 18 18 18 17 16 16 16 15 14 14 15 15 15 14 13 13 13 12 13 12 12 12 12 11 10 10 11 11 10 11 11 11 12 12 11 11 12 12 12 13 12 12 12 13
10 9 6 2 3 2 3 3 2 2 3 4 2 5 4 6 8 9 9 10 10 10 11 7 8 8 7 8 6 7 7 8 14 15 18 22 26 26 25 24 21 21 21 20 20 21 23 23 21 21 20 19 19 18 18 17 16 16 16 15 15 15 15 15 16 15 14 14 13 12 12 12 12 12 11 11 10 9 10 10 10 10 10 11 11 12 12 11 11 12 11 11 12 12 12 11 12
10 8 4 2 2 2 4 3 1 1 3 3 2 5 6 7 8 10 11 11 9 10 9 7 8 9 7 6 7 8 5 10 14 15 20 25 27 26 24 22 21 22 20 20 20 21 22 21 21 20 19 19 18 18 17 16 16 16 16 15 16 16 16 15 15 15 14 13 13 12 12 12 12 11 10 10 10 9 9 10 10 10 10 11 11 11 12 11 11 12 11 11 12 12 11 11 12
9 4 2 3 3 3 4 3 1 1 3 2 2 4 6 9 8 10 11 10 9 9 9 9 9 7 7 5 5 6 7 12 15 18 24 27 27 25 23 22 22 21 20 20 20 21 22 21 20 19 19 19 18 17 17 17 16 15 15 16 17 16 16 15 14 14 14 13 13 12 12 12 11 11 11 11 10 9 10 10 10 10 10 11 10 11 12 11 11 12 12 11 12 12 11 11 11
8 3 2 3 4 3 3 1 1 0 2 2 3 4 5 8 8 10 10 9 9 9 10 11 8 5 7 6 7 7 8 13 17 23 26 27 27 24 23 22 21 21 21 20 20 21 21 21 20 19 19 18 17 17 17 17 15 15 16 16 17 16 15 15 15 14 14 13 13 12 12 12 11 11 11 11 11 10 10 11 11 11 10 10 10 10 11 10 10 11 12 12 12 11 11 11 11
6 3 3 3 3 3 2 1 1 2 3 2 4 6 7 7 8 10 9 9 9 9 11 10 5 6 9 8 8 7 9 16 21 25 25 27 26 23 22 21 21 22 21 20 20 20 20 20 19 19 18 17 17 16 16 16 15 15 16 16 16 16 15 15 15 14 14 14 13 13 13 12 12 11 11 11 11 11 11 11 11 10 10 10 10 10 11 10 9 10 11 12 12 12 12 12 12
4 3 4 4 3 3 2 2 2 3 5 3 5 6 7 8 8 9 8 9 10 10 11 9 7 9 10 8 5 7 14 19 24 26 26 26 24 23 22 21 21 21 20 21 20 19 20 20 18 18 17 17 17 16 15 15 15 15 15 16 16 16 15 15 15 14 14 13 14 13 13 12 11 11 11 11 11 12 11 11 11 11 11 10 10 11 11 10 9 10 11 12 12 12 12 12 12
3 3 4 4 3 2 3 3 2 3 5 5 6 7 8 9 8 8 8 9 10 11 11 9 9 10 9 7 5 10 18 21 24 26 26 25 23 23 21 20 20 20 20 20 20 19 20 20 19 18 17 16 16 15 14 14 14 14 14 14 15 15 15 15 15 14 14 13 13 13 12 12 12 11 11 12 12 11 11 11 11 11 11 11 11 11 11 10 9 10 11 11 11 11 11 11 12
3 3 4 3 3 3 4 3 1 2 4 5 6 8 9 9 8 8 8 9 10 10 11 8 9 9 7 8 7 11 17 23 25 25 25 24 23 22 21 20 20 20 20 19 19 19 19 19 18 18 17 17 16 15 14 14 14 14 14 14 14 14 14 14 14 14 14 13 13 13 13 12 12 12 12 12 12 12 11 11 10 11 12 11 11 11 11 10 10 10 11 11 11 11 11 11 11
4 3 4 3 2 3 5 3 1 1 3 6 7 9 9 7 6 7 7 9 10 7 10 9 9 9 8 9 8 9 16 24 26 25 25 23 22 21 20 20 20 20 19 18 19 19 19 18 18 18 17 17 16 14 14 13 13 14 13 13 13 13 13 13 14 14 13 13 13 13 13 13 12 12 12 12 12 11 11 11 11 11 11 11 11 11 11 11 11 10 10 11 11 10 11 11 11
4 3 4 4 3 4 3 2 0 1 4 7 8 10 9 6 5 8 7 8 8 7 9 9 7 5 8 11 9 12 20 26 26 25 24 23 22 21 20 20 19 20 19 18 18 18 18 17 17 17 16 16 15 14 14 14 14 14 13 13 13 12 12 13 13 13 13 13 13 13 13 12 12 12 12 12 11 11 11 12 11 11 11 11 11 11 11 11 11 10 10 10 10 10 11 11 11
4 4 4 4 4 3 2 1 0 1 5 7 8 10 9 7 5 5 3 3 8 9 8 8 6 2 7 11 13 21 27 28 26 26 25 24 23 20 20 20 19 19 18 18 18 17 17 17 17 16 15 15 15 14 14 14 14 14 13 13 13 12 12 12 12 12 12 12 12 13 12 12 12 12 12 11 11 11 11 11 11 11 11 11 11 11 11 11 10 10 10 10 10 11 11 11 11
4 4 5 4 4 1 1 1 2 1 5 7 9 10 9 8 6 3 3 2 8 10 7 7 6 3 5 11 19 27 29 28 27 27 26 25 23 21 20 19 19 18 17 18 17 17 17 17 17 16 15 15 14 14 14 14 14 14 13 13 13 13 12 12 12 12 12 12 12 13 12 11 10 10 10 10 11 10 11 11 11 11 11 11 11 11 12 11 10 10 10 10 10 10 11 11 11
5 5 5 4 3 0 3 4 5 1 4 7 9 10 9 9 9 6 6 6 8 10 7 8 7 5 8 15 24 29 30 29 28 27 27 24 22 20 20 19 19 18 18 18 17 17 18 17 17 16 16 15 15 14 14 14 14 13 13 13 13 13 13 12 13 13 12 12 12 11 10 9 9 9 9 9 10 9 10 10 10 10 11 11 11 11 11 11 9 9 10 9 9 10 10 9 9
7 5 5 4 1 2 3 4 4 3 3 4 8 10 8 9 10 9 8 9 11 10 9 9 9 9 11 18 25 29 30 29 28 27 26 24 23 21 20 19 19 19 18 18 17 18 17 17 16 16 16 16 15 14 14 14 14 13 12 13 13 13 13 12 12 11 11 12 11 9 9 9 9 9 9 9 9 9 9 9 9 9 10 10 10 10 10 10 9 9 9 9 9 9 7 6 7
7 6 6 3 1 1 2 2 3 3 3 2 8 9 8 8 9 9 8 10 11 10 10 11 11 13 14 18 24 29 30 28 28 27 26 24 23 22 20 20 20 19 18 18 17 18 17 17 16 15 16 16 15 14 13 13 13 13 12 12 12 12 12 11 11 10 10 10 9 9 9 10 9 9 9 9 8 8 7 8 8 8 8 9 10 8 8 9 9 8 8 8 7 6 5 6 6
6 7 6 1 2 3 2 3 4 5 3 1 6 8 8 8 8 8 8 8 9 9 10 12 13 16 17 19 23 28 29 28 28 26 26 24 23 22 20 20 19 18 18 17 17 17 17 17 16 16 16 16 15 14 13 13 13 12 12 12 12 12 11 11 10 10 10 10 9 9 10 10 9 8 8 7 6 6 6 6 6 6 6 7 8 6 5 6 7 6 6 6 5 5 5 5 6
5 8 9 3 1 2 3 4 4 5 4 3 5 7 7 8 8 8 9 8 4 5 10 11 14 19 20 21 23 25 26 27 27 27 26 25 23 22 21 21 19 19 18 17 17 17 18 17 17 16 16 16 14 13 13 13 14 13 12 12 11 11 11 11 10 10 9 9 8 9 10 9 8 8 7 6 6 5 5 5 5 5 5 5 5 5 4 4 5 4 4 4 4 4 5 5 5
7 8 9 7 6 3 3 4 1 4 2 2 3 5 5 7 9 8 10 6 3 4 9 12 15 20 23 24 24 24 24 25 26 27 27 26 25 22 22 21 20 19 18 17 18 17 18 18 17 17 17 16 14 13 13 14 13 12 12 12 11 11 11 10 10 9 9 8 8 8 9 8 7 7 6 5 5 4 4 4 4 4 4 4 3 3 4 3 3 3 3 3 3 3 4 4 4
10 8 8 8 8 6 5 5 3 4 3 1 1 4 6 8 7 7 10 7 3 5 10 14 16 21 23 24 23 23 24 25 27 28 28 26 25 23 22 21 20 19 18 18 18 18 18 18 18 18 17 16 15 14 13 14 13 12 12 11 11 10 10 10 9 9 9 8 8 7 7 7 6 6 6 5 4 3 3 3 3 3 3 3 3 3 3 3 2 2 2 2 1 2 2 2 3
13 12 9 6 7 7 7 6 5 5 4 2 2 5 7 8 6 5 9 8 6 8 12 15 17 20 21 22 23 22 22 24 27 28 27 26 25 24 21 20 20 19 19 19 18 18 19 19 18 18 17 16 15 14 13 13 13 12 12 11 10 10 10 9 9 9 9 8 8 7 6 6 6 6 5 5 4 3 3 2 2 2 3 3 2 2 2 2 2 2 1 1 1 0 1 1 2
10 14 12 8 7 6 6 7 7 6 4 3 4 7 6 7 6 6 9 8 9 11 14 17 18 20 20 20 22 22 22 24 26 27 27 26 25 24 22 21 21 20 19 19 18 18 19 19 19 18 17 16 15 14 13 12 12 12 12 11 10 10 9 9 9 9 9 8 8 7 6 6 5 6 6 5 4 3 3 2 2 2 2 2 2 2 2 2 2 2 1 1 1 0 1 1 1
2 8 12 12 12 9 8 8 8 8 7 6 6 7 5 7 7 6 8 10 11 13 15 17 18 19 19 19 20 21 22 25 27 28 26 26 25 24 23 22 22 21 20 20 18 18 19 20 19 18 17 16 15 14 13 12 12 12 11 10 10 9 9 9 10 9 8 8 7 7 6 6 5 6 6 5 4 4 3 2 2 2 2 2 2 2 2 2 2 1 1 1 1 0 1 1 2
4 5 8 12 13 12 13 13 12 10 7 8 8 8 6 8 8 6 9 12 13 14 15 17 17 17 18 19 19 18 19 25 28 28 27 26 25 25 25 24 23 22 21 21 19 18 20 20 20 19 17 16 15 14 13 12 12 11 11 10 10 9 9 10 9 9 8 7 7 7 6 5 5 5 6 5 4 3 3 2 2 2 2 2 2 2 2 2 2 1 1 1 1 1 2 2 2
9 8 9 10 11 12 14 14 13 11 8 7 7 8 9 10 10 8 10 13 14 15 15 16 16 15 17 18 17 16 18 24 26 27 27 27 27 27 26 25 24 23 22 21 19 19 21 20 20 19 18 17 16 15 14 12 12 11 11 11 10 9 9 9 9 8 8 7 7 7 6 6 5 4 4 4 4 3 3 2 2 2 2 2 2 2 2 2 2 1 1 1 1 1 1 2 3
11 10 9 9 9 11 13 14 13 12 9 8 8 7 7 9 12 11 12 15 15 15 15 15 15 14 15 16 15 16 19 22 24 26 28 28 27 27 27 26 25 23 21 21 20 20 21 20 19 19 19 18 17 15 14 13 12 11 11 10 10 10 9 9 8 8 8 7 7 7 7 6 5 3 3 3 3 3 3 2 2 2 2 2 2 2 2 2 2 2 1 1 0 1 1 2 2
9 10 8 8 8 9 11 13 14 14 10 10 10 7 3 7 13 14 13 16 16 14 15 15 14 14 14 15 16 16 18 21 25 28 29 28 27 26 27 26 25 24 21 22 22 21 21 20 19 19 19 19 18 16 14 13 12 11 11 10 10 11 9 9 8 8 8 8 8 8 7 6 4 3 2 1 2 2 2 2 2 2 2 2 2 2 1 2 2 2 2 2 1 1 2 3 2
8 8 8 9 8 8 9 12 14 15 11 13 13 6 4 9 13 15 14 16 17 15 15 15 15 16 15 15 16 16 17 21 26 28 29 29 27 26 27 27 26 25 22 22 23 22 22 21 20 19 20 20 18 16 14 13 12 11 11 10 11 11 10 9 8 8 9 8 8 8 7 6 4 3 2 2 1 2 2 2 2 2 2 2 2 2 1 2 2 2 2 2 2 2 2 3 3
8 8 9 9 11 10 8 11 15 15 11 14 15 7 4 8 11 16 16 17 17 14 15 16 16 16 16 15 15 15 16 19 22 26 29 29 27 26 26 27 27 25 23 23 23 24 22 21 21 20 20 20 18 17 15 13 12 11 10 10 10 11 10 9 9 8 8 9 8 7 7 7 5 4 3 2 2 2 2 2 2 3 3 2 2 2 1 2 2 3 3 2 2 1 1 2 2
8 8 9 10 12 11 10 11 14 16 13 13 15 12 8 6 9 14 16 17 17 14 15 17 16 15 15 14 15 16 16 17 19 24 29 29 28 26 26 27 27 25 23 23 24 24 23 21 21 20 20 20 18 17 16 14 13 11 11 10 10 11 10 9 9 9 8 8 8 8 8 7 6 5 4 3 2 2 2 2 2 3 3 3 3 2 1 2 1 2 3 2 1 2 2 2 2
10 10 9 10 11 12 13 10 11 17 17 13 14 15 14 9 8 12 15 16 16 15 15 16 16 16 16 15 15 16 17 18 19 24 30 29 28 27 26 26 27 26 23 23 23 23 22 21 21 20 19 20 18 17 16 14 13 12 11 11 10 10 10 9 9 9 8 8 8 8 8 8 7 6 5 4 3 2 3 3 3 3 3 3 2 2 2 2 1 2 2 2 2 1 2 3 3
9 12 10 11 10 10 14 11 7 13 16 15 15 14 14 14 10 12 13 14 15 15 14 14 15 16 15 15 15 16 18 18 20 26 29 29 28 27 26 26 27 26 24 24 23 23 23 21 21 21 20 20 19 17 17 16 14 14 13 13 12 12 11 10 9 9 9 8 8 8 9 8 7 7 6 5 4 3 3 3 4 4 3 3 3 2 2 2 2 2 2 2 2 2 2 3 3
7 10 10 11 10 9 13 13 8 8 10 13 16 16 15 15 13 12 13 14 15 15 15 14 14 15 15 16 17 17 18 17 20 25 28 28 28 27 26 26 27 26 25 25 24 24 24 23 22 22 22 21 21 19 19 18 16 16 16 15 14 13 12 11 11 10 9 9 9 9 9 9 8 7 7 6 6 5 4 4 4 4 4 3 3 2 1 2 2 2 2 2 1 1 1 2 2
7 8 8 9 10 9 10 12 9 9 10 10 14 16 16 15 14 13 13 14 15 16 16 15 17 17 15 17 18 17 15 14 19 23 26 28 28 28 27 26 28 28 26 26 26 25 25 24 23 23 23 23 22 21 20 19 18 17 16 16 14 13 13 13 12 11 10 9 10 10 10 9 8 8 7 7 7 7 5 5 5 5 4 4 3 2 2 2 2 2 2 1 1 1 1 1 2
9 8 8 8 9 9 9 10 9 8 8 10 13 13 13 14 14 14 13 14 14 14 16 16 17 18 16 17 17 17 16 16 18 21 25 29 29 29 28 26 28 29 28 28 28 27 26 25 23 23 23 23 23 22 21 20 19 17 16 15 14 13 12 13 12 11 11 10 10 11 11 10 9 8 8 8 8 8 7 6 5 5 5 4 3 3 3 3 2 2 2 2 1 2 2 2 2
11 9 9 8 8 9 9 10 10 10 8 10 13 11 11 12 14 15 15 14 13 14 16 16 16 17 17 18 17 17 19 18 19 20 22 26 29 29 28 27 28 28 28 28 29 28 27 26 25 24 23 23 23 23 22 20 18 16 15 13 13 12 10 11 12 11 11 11 11 12 12 11 11 9 9 9 9 8 8 7 6 6 6 5 4 4 3 3 3 3 3 3 3 2 2 3 3
12 13 11 10 9 10 9 5 6 9 11 12 12 10 9 11 14 15 14 14 14 14 16 16 16 17 16 16 16 18 19 19 19 21 21 23 27 29 29 28 28 29 29 29 30 29 27 27 27 25 24 23 23 24 24 21 18 17 15 13 12 11 9 10 12 12 12 12 12 12 13 13 12 10 10 10 9 9 8 8 7 6 6 6 5 5 4 4 3 4 4 3 4 3 1 1 3
11 15 16 14 11 10 11 8 4 7 10 12 13 11 8 12 16 15 12 14 15 14 15 17 16 16 15 14 16 17 18 18 19 21 21 22 26 28 29 29 29 29 30 29 30 29 27 27 27 26 24 24 23 24 25 23 20 19 19 17 15 15 14 14 15 15 14 14 13 13 13 14 13 12 11 10 10 9 9 8 8 7 6 6 6 5 4 4 4 4 4 4 4 4 2 2 2
9 11 15 19 16 11 11 10 9 8 8 10 14 13 10 11 16 18 16 16 17 16 16 17 16 14 15 14 15 16 17 18 18 20 21 22 25 28 29 30 30 30 29 29 28 29 28 27 27 27 25 24 23 24 26 25 22 21 22 21 19 18 17 17 17 16 14 13 14 13 13 14 15 14 12 11 11 10 9 9 8 8 7 7 7 6 6 5 4 4 4 4 3 3 3 3 3
9 8 11 17 19 16 13 11 10 9 8 8 11 12 11 10 13 17 19 19 18 18 17 17 15 16 17 16 16 17 18 19 18 19 21 22 25 28 30 31 31 29 28 28 28 29 29 28 28 28 26 25 24 25 27 26 24 23 23 22 20 20 19 18 16 16 15 13 13 14 13 13 15 15 14 12 12 11 10 9 9 9 8 7 7 7 7 6 5 4 5 5 4 4 4 4 4
10 7 6 11 16 19 16 12 10 9 10 10 11 11 10 10 10 11 15 20 20 19 19 18 16 17 18 17 18 18 19 19 19 20 21 22 25 29 31 30 30 29 29 29 28 28 29 28 27 28 27 25 25 26 27 28 26 24 23 23 21 20 20 18 16 15 15 14 13 14 13 13 13 15 15 14 13 13 12 11 10 10 9 8 8 7 7 7 6 6 6 6 6 5 5 5 5
12 9 6 7 12 15 15 12 10 10 11 13 13 14 11 9 11 11 12 16 18 17 17 17 17 18 18 17 18 18 18 18 19 20 21 23 27 30 30 29 30 30 29 28 28 27 28 28 28 29 28 26 26 27 28 28 27 24 23 23 22 21 19 18 16 15 15 15 14 14 14 14 13 14 15 15 14 14 13 12 11 11 10 9 8 8 7 8 8 8 8 7 7 7 6 6 6
12 11 9 9 10 10 11 10 9 10 12 14 16 17 13 11 10 12 12 13 15 14 14 15 17 18 18 17 17 18 17 16 17 18 19 23 27 28 28 29 30 29 28 28 28 28 29 29 29 30 29 27 26 28 29 28 27 25 24 24 24 22 20 19 17 16 16 16 16 16 15 15 14 14 14 15 16 15 14 13 12 11 11 10 10 9 8 8 9 9 9 8 8 8 7 6 6
12 11 9 8 8 8 8 9 10 11 12 12 16 18 17 14 10 10 12 14 16 16 15 16 18 18 17 16 16 16 16 16 17 17 17 19 22 24 27 29 29 30 29 29 30 29 29 29 30 30 30 28 27 28 29 28 27 26 25 24 24 24 22 21 20 19 18 18 17 17 15 15 15 15 15 15 15 16 15 14 14 13 12 11 11 10 9 9 8 9 9 9 9 9 8 7 7
12 10 9 9 8 8 9 9 10 11 11 11 14 17 16 14 11 12 14 14 15 16 17 17 17 17 17 16 16 15 15 17 17 16 16 18 19 21 26 28 29 30 31 31 31 30 30 30 30 31 31 30 29 28 29 29 28 27 26 25 24 24 23 22 21 20 19 19 18 18 17 16 16 16 16 16 15 15 15 15 15 14 13 12 12 11 10 9 9 8 9 9 9 9 9 9 8
13 12 10 10 9 9 10 10 9 10 11 12 15 14 13 12 12 15 18 14 11 12 15 17 16 16 16 16 16 15 16 17 16 16 17 18 19 21 25 29 30 30 32 32 31 31 30 30 31 32 31 31 30 29 29 29 29 27 26 26 24 24 24 23 22 21 20 19 19 19 19 18 17 18 18 16 15 15 15 15 15 15 14 13 13 12 12 11 10 9 9 10 10 9 10 10 9
13 13 11 11 10 9 9 8 9 9 8 12 16 12 9 8 7 10 16 17 14 11 12 13 13 13 14 15 16 16 16 16 15 16 18 19 20 23 26 28 29 30 32 32 31 31 30 30 32 32 31 31 31 29 29 29 29 27 26 26 25 24 23 23 22 21 20 20 19 20 20 19 18 18 17 17 16 15 15 15 15 15 15 15 14 14 12 12 11 10 10 10 10 10 10 11 10
11 12 12 12 11 9 8 7 9 9 7 9 12 9 6 4 2 3 9 14 17 17 14 14 13 13 13 14 15 15 15 16 16 16 18 20 21 24 26 28 29 30 32 32 32 32 32 30 31 33 33 32 31 30 30 29 28 27 27 26 26 24 23 22 21 21 21 20 20 20 20 20 19 17 16 16 16 16 16 15 15 15 15 15 15 15 13 12 12 12 10 10 10 10 11 11 11
9 12 12 12 12 11 9 9 9 8 9 8 8 9 8 6 5 7 10 11 14 18 19 19 19 17 15 13 14 15 15 16 16 16 18 20 21 23 27 28 29 31 32 34 34 34 33 32 31 32 32 32 32 32 30 29 28 27 27 27 26 25 24 23 22 22 22 21 20 20 20 19 19 17 16 16 16 16 16 16 15 15 16 16 15 15 14 13 13 13 12 11 11 11 11 12 12
9 10 12 11 13 12 9 8 8 9 10 8 9 12 11 8 7 9 15 17 16 16 18 19 20 21 19 16 14 15 16 16 17 18 19 19 20 23 27 29 31 33 35 36 36 34 33 31 31 33 33 33 33 32 30 29 29 28 28 28 28 27 25 24 23 22 22 21 21 21 20 19 19 18 17 16 16 16 16 16 16 15 15 16 16 15 15 14 14 13 13 12 12 11 11 11 11
15 10 10 12 11 11 10 8 9 11 10 8 10 13 11 9 7 5 11 18 18 17 17 17 19 20 20 19 18 17 16 15 16 17 17 17 19 23 27 30 32 34 34 34 35 33 32 32 31 32 34 34 33 32 30 30 29 28 27 28 29 28 26 25 24 22 21 22 22 21 21 20 19 18 18 17 16 16 16 16 16 16 16 16 16 16 15 15 15 14 14 13 13 12 11 11 11
18 14 11 11 11 10 10 9 8 9 9 8 10 11 9 9 10 8 8 11 14 15 15 16 18 18 17 18 18 18 18 16 15 15 16 18 20 24 29 32 32 34 33 33 34 34 33 33 32 32 32 32 32 32 32 31 30 29 27 28 28 28 27 25 24 23 22 22 23 22 21 20 19 18 18 18 18 17 16 16 16 16 16 17 16 16 16 16 16 15 15 14 13 13 13 12 12
15 14 13 11 10 10 11 11 10 9 9 8 7 8 7 5 8 11 9 8 10 12 13 13 15 16 17 17 17 17 17 17 16 15 16 19 20 24 30 32 32 32 32 32 33 34 34 32 32 33 32 33 34 34 33 32 31 30 29 29 29 29 28 26 25 25 24 23 23 22 21 20 19 18 18 18 19 18 18 17 17 17 17 17 17 17 16 16 16 16 16 15 14 14 14 14 13
10 12 15 15 12 11 12 12 13 11 9 8 7 6 4 3 4 8 9 9 10 11 12 12 13 15 15 16 17 17 16 17 18 17 18 18 19 22 27 29 29 30 30 32 33 33 33 33 33 33 33 33 34 34 33 32 31 31 31 31 29 29 28 27 26 26 25 24 23 23 22 20 20 19 19 19 19 19 19 18 18 17 17 17 17 17 16 16 16 17 16 16 15 15 16 15 14
Wind_Direction
150 152 153 162 167 172 188 211 239 191 237 259 211 159 114 69 108 140 127 150 136 131 139 128 130 125 139 115 119 82 42 50 50 87 111 121 137 141 144 142 140 136 133 126 123 124 123 125 125 126 124 127 129 129 132 132 131 130 130 131 131 130 132 132 130 127 124 125 124 120 120 120 119 118 115 112 109 105 101 99 99 99 96 94 92 91 89 88 87 89 91 92 94 96 97 97 96
157 156 158 160 167 193 181 194 260 191 225 247 125 70 95 118 138 129 138 159 98 126 141 128 128 115 119 107 119 109 63 45 66 92 108 128 134 139 145 143 140 136 132 123 118 120 118 117 116 119 122 128 133 132 133 133 132 131 133 133 135 136 137 134 131 129 129 129 126 124 123 121 119 117 116 114 110 105 101 99 99 101 99 94 91 90 89 88 89 89 89 91 93 96 97 95 93
163 156 158 160 170 218 222 187 255 247 231 230 100 86 114 133 114 107 123 116 105 135 134 129 129 117 147 129 101 104 92 68 97 108 120 134 137 142 146 143 140 137 134 129 128 128 126 125 124 127 130 134 136 136 137 136 137 137 139 139 139 139 138 136 133 131 129 130 127 125 124 120 119 117 117 113 110 107 103 102 100 102 100 96 91 89 89 87 89 91 90 92 94 94 96 95 93
161 156 167 174 191 215 218 206 244 268 238 90 93 97 113 118 113 114 117 121 130 141 134 137 128 92 154 122 79 84 100 96 114 123 133 141 143 145 146 143 139 136 136 135 135 135 136 137 138 140 140 140 140 140 140 139 140 141 142 141 139 138 138 135 132 130 129 129 127 125 123 121 119 119 117 114 111 109 106 103 100 101 100 97 93 90 89 86 88 92 93 92 93 94 94 94 94
157 163 179 201 244 220 250 237 232 262 327 27 85 99 103 109 120 128 128 138 147 149 144 147 126 108 101 79 50 99 102 103 124 135 135 138 142 145 146 143 140 139 138 138 137 136 139 142 142 142 142 143 142 142 141 141 142 142 142 139 137 136 134 131 130 131 130 128 126 124 122 121 121 119 117 115 111 108 106 103 100 99 98 97 95 93 91 88 87 89 92 93 94 93 92 92 95
155 162 179 252 284 288 281 255 234 263 26 356 31 88 105 111 125 131 132 145 155 156 149 141 127 131 105 67 52 79 93 118 136 142 135 137 143 145 144 144 142 141 139 138 137 135 139 142 142 142 142 141 141 142 141 141 141 141 139 136 133 132 132 131 131 131 130 128 126 124 121 121 121 118 116 113 108 107 106 102 100 98 98 99 97 96 95 93 87 86 88 90 93 93 92 91 92
162 164 177 229 270 258 260 262 315 315 66 7 12 82 113 119 132 137 139 149 154 162 157 140 134 129 111 107 84 71 84 128 139 140 138 141 142 143 145 145 143 140 139 137 135 135 140 141 141 141 141 140 140 141 140 138 137 137 134 133 130 130 134 132 130 130 129 128 127 124 121 119 118 116 113 111 108 108 106 100 99 98 98 99 98 95 97 96 89 87 85 80 82 86 88 88 89
176 189 197 220 236 203 247 280 340 337 77 69 53 78 116 129 144 146 147 154 157 166 166 157 147 111 103 134 101 92 118 130 137 135 139 142 142 144 145 146 142 141 139 136 134 136 140 141 141 141 140 140 140 140 139 136 134 133 130 128 128 129 133 129 128 129 128 127 127 124 121 119 117 115 112 111 110 109 105 101 99 98 96 95 96 94 96 98 93 91 89 85 80 82 85 83 82
184 224 234 239 259 224 251 282 90 41 89 118 111 101 125 137 151 155 159 158 158 170 168 169 168 116 116 117 96 118 131 131 135 135 142 144 143 145 146 147 144 143 140 136 135 136 139 141 141 141 141 140 140 140 138 135 132 130 126 127 128 128 129 126 125 126 126 126 125 122 120 119 115 111 110 111 110 107 103 100 98 97 97 94 94 96 97 96 92 90 93 97 95 93 91 86 83
191 216 247 262 280 279 260 132 93 108 109 105 113 133 145 145 157 163 165 155 157 168 161 168 168 126 125 111 102 129 137 140 140 140 146 146 146 145 146 148 145 144 140 138 137 137 140 142 142 141 141 141 140 139 136 133 131 129 125 128 127 127 129 126 125 125 125 124 123 121 119 117 112 109 110 111 108 105 103 102 102 100 98 96 95 95 95 93 86 81 85 93 96 96 95 95 97
209 206 239 266 271 292 331 49 48 89 107 115 123 145 155 153 164 166 163 152 157 157 152 165 150 127 123 111 101 126 141 148 146 146 149 147 147 146 146 147 146 145 141 140 139 138 141 143 143 142 141 142 141 138 135 132 130 127 125 127 125 128 130 127 126 124 121 120 120 119 117 116 114 113 112 110 109 107 105 105 105 103 99 96 96 94 95 93 84 77 78 83 85 90 95 99 102
233 218 233 272 294 316 340 344 22 81 120 143 142 152 164 163 168 165 163 154 153 154 157 169 149 139 130 117 112 133 147 153 150 149 149 148 148 146 146 146 147 147 143 142 140 140 142 144 144 144 144 143 140 137 135 132 131 129 127 126 125 127 127 126 125 122 121 119 118 118 117 117 116 115 114 112 110 108 105 105 105 104 101 97 95 93 96 94 85 80 78 79 80 83 90 96 95
230 253 254 276 307 314 306 295 67 116 140 131 138 154 168 169 170 165 161 152 155 162 158 157 150 146 122 112 128 141 152 154 151 150 149 150 149 147 146 146 148 147 145 143 141 143 144 145 145 146 146 143 141 137 136 135 134 133 132 129 126 125 125 127 126 124 124 121 120 120 120 119 119 118 116 112 107 105 104 104 103 102 101 97 94 91 92 91 88 85 79 79 79 80 85 89 90
223 252 270 285 296 276 278 269 121 151 123 106 129 154 171 170 163 163 162 152 152 154 140 145 151 137 117 124 140 149 156 156 152 151 151 151 148 148 148 147 148 148 147 146 144 144 146 148 146 146 147 144 142 141 139 139 137 136 135 133 130 128 129 130 128 126 125 123 122 122 122 121 121 118 112 106 102 104 103 102 100 98 98 96 95 92 91 89 87 85 80 80 82 82 86 87 89
239 263 263 273 270 245 247 265 52 133 107 114 141 155 163 152 158 167 171 157 133 124 129 148 165 141 149 158 156 158 159 156 154 153 152 150 149 149 149 149 149 150 150 148 148 148 150 150 147 147 147 146 146 144 143 142 141 139 138 135 133 132 131 131 128 126 126 125 124 124 124 121 120 116 109 105 104 104 103 101 100 98 98 97 95 94 91 89 88 87 86 86 86 83 85 86 88
239 275 259 255 260 242 175 200 16 130 99 115 147 158 156 141 171 168 141 139 124 141 151 155 166 131 158 163 152 156 159 156 155 155 153 151 150 149 150 151 151 152 153 151 152 152 153 151 149 149 149 152 149 145 145 144 144 141 141 139 137 135 134 132 128 127 129 127 127 127 124 120 118 114 110 110 108 106 106 104 102 100 99 98 96 95 91 89 89 89 90 90 87 83 83 85 87
222 252 247 243 245 235 106 31 36 100 107 122 152 166 163 149 169 145 92 133 138 154 161 143 146 119 135 142 144 152 156 156 156 156 155 155 153 152 154 155 154 154 157 156 155 156 156 154 151 151 154 156 151 147 146 146 147 145 144 143 140 139 140 139 134 133 132 130 131 128 123 123 122 117 115 113 109 108 109 105 101 100 98 97 95 93 91 88 86 86 88 87 86 84 83 83 82
216 228 235 246 237 178 40 38 47 77 118 132 165 177 175 162 166 157 151 165 153 155 147 132 133 120 116 129 142 151 155 158 159 160 159 159 158 157 158 160 160 158 159 159 159 160 159 156 154 155 156 156 153 150 147 148 149 147 147 146 144 145 146 143 140 138 135 135 135 130 128 129 126 122 121 116 112 113 112 107 104 103 99 98 96 94 92 90 85 82 85 85 86 86 84 85 82
222 230 235 244 229 64 45 34 40 17 46 125 171 181 186 171 163 168 174 168 162 159 149 143 132 123 124 135 147 152 157 160 162 163 162 163 163 161 161 162 163 161 162 162 161 163 161 159 158 158 158 157 156 152 148 148 150 150 151 150 149 150 149 148 145 142 139 139 139 137 132 129 125 124 126 123 121 121 117 112 108 104 102 100 94 87 84 85 81 76 81 81 76 79 85 91 91
224 237 241 237 139 90 84 16 17 25 11 171 170 178 192 171 160 180 187 168 172 175 157 157 147 138 140 144 151 156 161 163 164 166 165 165 165 164 163 164 165 163 164 163 161 164 164 161 159 160 160 160 159 154 149 149 152 155 154 154 155 154 153 152 146 141 141 141 141 140 134 129 126 125 126 122 119 120 116 108 100 95 95 94 87 78 74 74 72 65 67 72 71 76 89 89 87
215 226 246 21 110 196 131 77 58 49 20 152 161 177 189 170 169 190 191 176 185 190 171 169 157 145 147 150 156 161 163 165 168 170 168 168 167 165 165 166 167 164 165 163 161 165 165 163 162 162 163 164 162 156 151 153 156 157 156 156 156 156 155 150 144 140 140 140 143 141 136 132 128 128 130 124 118 119 118 111 100 95 94 90 85 84 79 67 72 73 62 70 81 87 89 85 83
233 225 248 296 205 187 122 113 69 34 31 103 160 184 180 170 185 199 199 194 175 177 173 167 154 147 150 155 161 165 165 167 170 172 171 171 170 166 166 166 167 165 167 166 163 166 167 166 164 165 166 166 165 160 155 155 158 158 157 156 155 156 152 147 143 142 142 143 146 142 139 136 131 131 135 131 124 119 116 112 107 106 104 94 84 85 83 67 75 83 72 74 83 91 88 81 80
244 231 236 251 247 239 162 170 54 358 14 107 159 181 176 182 196 202 211 212 65 106 154 152 150 150 152 156 163 169 169 170 171 173 174 173 172 169 167 167 168 167 169 169 165 166 169 168 168 168 168 168 167 163 158 157 159 159 155 155 155 153 149 148 146 143 146 146 145 144 143 142 136 133 134 134 128 120 112 107 106 109 107 98 88 78 77 69 70 74 75 74 72 95 98 89 86
237 248 239 240 247 243 224 225 279 305 291 300 206 189 194 198 202 196 210 214 102 115 138 143 148 150 153 157 166 171 172 173 172 174 175 175 174 171 170 169 169 169 170 169 165 167 171 171 170 170 169 169 168 165 162 160 160 158 154 155 154 152 151 151 148 145 147 146 145 146 145 143 140 133 135 135 132 126 115 109 108 111 106 96 89 77 71 60 58 63 69 67 69 102 104 98 97
229 246 254 251 254 246 242 249 259 267 268 276 237 219 209 200 208 201 208 200 148 136 137 144 149 152 158 161 167 171 173 174 173 176 176 176 177 174 173 173 172 173 174 171 167 168 172 172 172 173 171 171 170 168 167 163 160 159 156 155 154 154 154 151 149 149 150 150 146 143 140 140 138 130 131 130 130 128 120 123 119 107 97 90 85 72 66 52 48 55 49 50 67 140 141 122 114
221 238 248 252 256 248 246 245 243 252 251 255 240 226 212 196 209 212 208 188 147 146 145 147 153 157 162 164 168 171 173 175 175 177 177 177 178 177 176 176 176 177 176 172 168 169 171 174 175 175 174 173 172 170 170 166 162 161 158 158 158 157 157 153 153 154 155 152 148 146 139 134 129 124 123 120 123 124 126 133 123 112 97 90 82 69 59 41 50 52 49 51 46 242 204 153 139
220 240 247 250 257 255 251 250 246 251 250 247 246 234 208 185 202 209 188 172 153 154 153 153 158 162 165 167 170 172 174 177 177 178 179 179 179 179 179 179 180 179 178 175 171 171 171 175 177 176 176 175 175 174 173 169 164 163 162 162 162 161 159 158 158 159 157 153 150 148 140 131 122 116 116 113 116 117 123 129 121 117 107 97 84 77 70 47 57 65 71 81 83 243 242 193 160
275 267 260 249 252 253 248 250 247 246 244 234 235 241 219 183 203 212 160 159 164 162 160 159 163 166 167 168 170 173 177 179 179 180 182 182 182 183 182 182 182 181 181 178 173 171 173 175 177 177 177 176 178 178 175 173 169 168 167 166 167 165 161 162 164 161 157 154 151 150 146 137 125 117 115 111 113 113 114 121 117 117 111 108 97 85 85 72 74 82 100 148 184 234 237 188 171
257 261 270 257 248 247 239 237 236 231 226 210 216 234 216 192 211 213 156 159 171 168 166 165 167 167 168 171 171 175 180 180 181 183 185 185 185 186 185 185 183 182 183 180 174 172 174 175 176 178 178 178 182 180 177 176 174 172 172 171 170 168 166 167 167 164 160 154 153 156 155 148 137 123 114 113 120 120 116 116 112 115 113 110 106 104 104 98 86 82 103 173 213 232 217 175 171
244 243 256 261 250 243 229 221 220 221 218 195 206 229 202 189 210 203 162 166 175 172 171 170 170 169 170 173 174 178 182 182 185 187 188 187 188 188 186 186 185 183 181 179 177 175 175 174 174 178 178 179 183 183 178 177 177 175 176 174 173 172 171 173 170 168 164 159 161 164 164 158 154 141 121 121 129 130 126 124 123 117 119 117 113 119 117 104 94 88 87 95 163 192 150 152 157
230 230 234 244 247 236 212 208 209 211 205 189 211 238 206 202 205 189 167 173 178 176 175 173 173 171 172 175 176 182 184 186 187 188 189 188 188 189 187 186 185 183 181 180 179 175 175 175 175 177 178 179 182 183 179 178 177 174 175 175 176 176 175 177 174 171 168 165 167 171 175 172 171 167 151 152 144 145 142 131 133 128 132 128 112 121 119 102 96 88 80 77 84 90 109 126 134
216 220 222 221 234 232 198 195 205 210 195 186 212 230 214 224 202 175 171 180 180 180 179 176 177 176 175 177 178 183 185 187 189 189 190 189 189 189 188 187 185 184 182 179 177 175 175 176 177 177 177 179 180 182 179 177 176 173 176 175 177 179 178 180 178 175 173 173 174 177 185 185 185 194 198 210 169 159 161 137 137 141 149 143 121 140 139 107 95 87 76 57 64 64 86 112 127
212 217 224 213 216 226 208 192 198 212 201 188 210 222 206 219 193 171 174 184 184 184 184 180 180 179 178 179 179 182 183 186 189 190 189 189 189 189 189 187 185 184 182 179 176 175 176 175 178 179 177 179 180 180 178 178 177 173 175 174 177 181 182 183 181 182 179 181 183 181 187 192 195 207 218 232 199 174 174 156 149 149 161 161 147 180 173 113 101 98 90 54 47 31 34 99 132
203 210 228 222 216 222 217 194 190 207 214 201 208 220 221 203 169 170 178 185 189 189 187 184 183 181 181 182 181 182 183 185 189 190 189 188 189 189 188 187 186 185 182 180 177 175 176 175 179 181 179 179 179 179 179 178 178 177 178 178 180 183 186 187 184 187 188 187 188 184 187 192 196 207 221 232 216 197 189 177 165 156 170 174 167 191 170 124 110 97 95 81 47 17 28 78 125
206 202 217 223 217 221 219 206 186 197 211 213 210 218 228 220 171 173 182 186 193 196 192 188 185 184 183 184 184 184 186 188 189 189 188 187 188 188 187 186 185 185 183 181 178 176 176 176 179 181 181 180 178 178 179 179 181 183 184 185 186 188 190 191 188 190 193 192 189 186 188 191 194 203 212 222 217 205 197 191 185 177 183 184 180 185 165 143 133 103 95 99 92 56 49 70 106
226 215 217 223 217 220 222 217 185 190 209 218 219 223 227 224 202 185 187 189 197 202 198 191 188 186 185 186 187 187 189 190 188 187 187 186 187 187 186 185 186 186 185 181 178 177 177 177 177 181 182 181 179 178 180 181 184 187 190 191 192 194 194 194 194 192 194 196 190 187 189 191 196 201 206 212 212 209 203 194 194 195 193 193 194 185 167 153 146 135 109 102 108 95 78 87 110
251 236 228 230 228 224 220 217 199 196 218 219 220 229 228 225 217 200 192 194 199 204 201 195 192 191 190 190 190 189 191 189 184 185 187 187 187 186 185 186 186 187 186 183 180 179 180 179 178 181 183 183 182 182 184 186 187 189 191 195 195 195 194 195 198 198 198 197 193 191 193 194 199 203 207 210 210 212 209 201 202 202 200 201 200 195 174 140 143 146 122 110 124 121 106 116 119
239 246 236 233 233 231 224 220 209 209 230 226 220 230 230 226 225 214 199 199 204 204 202 199 196 196 194 193 192 190 188 184 182 184 187 187 187 187 186 186 186 187 186 185 184 183 183 183 182 182 182 185 187 188 187 189 191 192 193 196 196 193 194 197 199 200 201 198 196 197 196 198 201 204 208 211 212 212 209 209 209 206 206 206 204 210 205 170 165 158 152 156 156 168 189 169 139
230 240 241 238 229 231 234 228 215 212 229 232 225 231 235 227 227 228 214 206 208 205 204 203 199 198 196 195 193 187 184 184 183 183 186 188 188 187 187 188 189 188 187 187 187 186 185 186 185 184 184 186 190 191 191 192 193 194 194 196 197 195 195 199 201 201 202 202 199 200 201 203 204 203 207 211 213 212 209 211 213 210 208 207 208 214 210 205 200 186 189 190 192 196 194 196 194
229 233 238 240 227 226 233 220 211 219 232 240 238 237 240 231 224 227 222 212 209 206 208 207 202 202 200 196 192 187 185 185 184 184 186 187 188 188 188 189 189 189 189 189 189 188 187 188 187 186 186 188 191 193 193 193 191 191 192 195 197 197 194 194 198 200 202 204 202 201 203 206 206 205 207 210 213 214 212 214 215 213 210 208 213 218 215 215 210 208 208 192 203 216 180 180 197
228 229 234 240 230 227 238 228 205 223 231 236 245 247 240 232 224 221 216 213 211 207 209 210 208 207 204 198 194 191 189 185 185 185 186 187 188 189 189 190 189 190 192 191 190 190 189 190 189 187 187 189 191 193 194 190 186 185 186 187 190 193 192 190 197 202 203 205 205 204 204 206 207 207 208 211 214 215 216 218 218 215 215 212 214 220 222 221 216 216 213 201 211 229 215 189 190
229 224 228 239 242 234 236 245 235 231 227 216 223 241 239 226 226 224 212 209 211 209 209 210 209 206 203 201 197 195 192 188 188 187 186 187 188 188 189 190 191 192 193 192 191 191 191 190 189 188 188 190 192 193 193 189 185 185 185 186 189 192 197 201 205 208 207 207 208 207 205 206 207 207 209 211 213 215 217 218 217 215 215 214 215 223 226 224 223 218 214 214 217 224 236 238 203
237 218 218 229 241 243 235 239 236 237 242 213 207 228 244 225 223 223 216 214 210 207 209 209 207 201 200 202 198 195 193 191 191 189 188 187 188 189 190 192 193 194 193 192 192 192 191 189 188 188 188 190 191 191 193 190 187 189 191 195 198 198 203 208 211 212 211 209 208 207 205 204 205 206 208 210 211 213 214 217 217 214 213 213 214 220 226 227 225 219 218 224 223 219 223 238 232
240 224 217 221 229 236 234 238 239 241 259 239 207 221 248 240 226 219 215 217 212 205 209 209 204 200 200 202 199 196 194 192 190 190 190 190 189 190 191 192 194 194 192 191 192 192 191 189 187 187 188 190 190 190 191 192 191 192 195 199 202 205 209 211 210 210 211 208 206 205 203 202 203 205 208 210 210 211 212 214 215 213 212 210 210 216 223 226 224 221 223 226 227 224 219 228 239
237 241 242 226 225 231 233 239 244 242 251 246 216 212 238 243 232 221 214 218 216 206 207 208 202 200 202 202 201 198 196 194 192 191 191 190 191 192 192 192 192 193 192 192 192 191 189 188 187 187 189 189 189 189 191 194 195 195 196 198 202 207 211 211 209 208 206 203 201 201 201 202 202 204 208 211 211 211 211 212 214 215 213 209 210 215 219 221 222 222 224 227 228 227 222 225 233
235 240 252 237 228 230 231 235 243 243 243 243 228 216 230 243 229 218 213 219 217 207 207 210 203 200 202 202 202 200 196 195 195 194 193 191 192 193 191 190 191 193 194 192 191 189 188 188 187 188 189 188 188 189 191 195 196 196 197 199 201 203 206 208 208 204 198 196 198 199 200 203 205 207 209 211 212 212 210 211 213 215 214 211 212 215 217 217 218 221 225 228 228 227 224 222 228
232 235 234 232 228 224 227 230 235 243 241 238 234 228 235 246 231 219 217 216 215 211 208 209 206 201 201 202 203 201 196 195 197 197 194 192 192 191 190 190 191 192 192 191 190 190 189 188 188 188 189 188 187 189 191 194 196 198 199 200 201 201 201 201 201 198 193 192 196 200 202 205 209 211 211 211 212 211 211 212 213 215 214 213 214 215 216 216 215 218 221 225 228 229 227 225 229
226 230 226 226 223 213 218 221 220 235 241 233 232 233 237 244 235 226 225 214 211 219 215 208 207 203 200 202 203 201 196 195 196 196 194 190 189 189 191 192 190 190 191 191 190 189 189 188 187 188 188 188 187 188 191 193 196 199 201 202 202 202 200 199 199 197 194 193 197 201 203 204 207 212 213 212 211 210 209 211 213 214 214 214 215 215 215 216 216 216 217 220 225 228 229 228 229
218 221 216 218 215 205 209 211 213 228 238 232 228 228 233 244 242 237 238 223 210 219 220 211 207 203 199 200 202 200 198 197 194 193 191 187 187 188 191 191 189 189 191 191 191 190 189 188 187 187 188 188 187 188 190 193 196 198 200 203 203 202 202 201 201 200 198 197 199 200 201 203 204 209 212 213 212 209 208 209 211 212 213 214 216 217 218 218 218 217 216 219 223 226 228 230 231
212 211 207 213 210 204 207 210 218 229 230 225 226 230 236 246 244 234 235 234 221 219 220 216 211 206 201 201 202 200 198 197 194 192 190 188 189 189 190 189 189 190 191 190 191 191 189 188 188 188 188 187 187 188 190 194 197 198 199 202 202 202 203 204 204 204 203 201 200 202 204 206 207 209 212 213 213 211 208 209 210 211 213 216 219 221 221 219 219 220 220 221 225 227 228 230 233
211 209 210 219 218 214 212 211 219 228 230 215 212 223 236 235 233 226 226 227 226 223 219 216 215 212 207 204 204 202 200 198 193 192 192 190 190 190 190 189 188 189 190 190 191 191 190 189 188 187 187 187 187 188 191 194 196 197 198 200 202 203 203 204 206 206 205 203 202 204 206 209 212 212 212 210 210 210 210 211 212 212 214 217 222 223 221 220 220 221 223 225 227 228 229 231 233
204 203 213 219 220 226 232 235 236 240 244 219 203 211 228 215 174 193 216 219 218 219 219 219 219 215 213 210 206 203 201 199 194 192 194 193 191 190 190 189 189 188 189 190 191 190 191 190 188 187 186 186 187 188 190 193 194 196 198 200 201 202 202 203 204 204 204 204 204 205 207 209 212 211 208 205 205 208 211 213 215 215 214 216 220 222 219 218 218 220 222 224 228 229 229 231 233
200 199 214 217 220 231 240 245 248 252 250 228 207 216 224 232 233 211 210 217 215 216 218 220 220 216 214 214 209 204 202 200 195 193 195 195 192 190 190 190 189 188 189 191 191 190 191 190 188 187 185 185 187 188 190 191 192 194 197 198 200 202 202 202 204 203 203 203 204 206 208 210 210 208 204 201 202 206 211 214 216 217 215 215 218 220 219 217 216 219 221 221 226 229 229 231 233
223 204 204 208 221 231 239 243 236 234 240 230 217 225 222 223 233 211 208 215 216 214 216 216 216 215 214 214 210 207 205 201 196 196 196 194 192 191 192 192 190 189 190 190 190 190 190 190 188 186 186 186 187 188 189 190 191 193 195 197 199 201 202 204 206 205 203 203 204 207 209 209 208 206 203 202 202 205 209 212 215 217 216 215 216 217 217 216 217 218 220 221 225 227 229 232 233
240 241 209 201 213 217 216 230 233 228 234 233 223 229 230 223 222 200 202 211 214 216 218 218 215 213 213 214 211 206 205 203 198 198 197 194 194 193 192 193 193 191 190 189 188 188 189 190 190 190 189 188 187 188 189 190 192 194 196 197 198 200 202 204 206 205 204 204 205 207 209 209 207 204 202 201 201 204 207 209 214 216 216 216 216 216 215 215 217 218 219 221 223 223 227 231 233
232 251 240 218 216 216 212 218 234 237 240 239 224 221 227 228 227 227 213 204 209 216 220 221 219 215 212 212 212 207 203 204 202 200 199 196 196 195 194 195 194 192 190 188 187 189 190 191 191 192 192 189 188 188 189 191 193 194 195 197 198 199 201 202 203 204 204 206 207 208 209 209 207 203 201 201 201 204 206 208 213 216 216 216 216 217 216 215 216 218 219 221 221 220 223 228 232
211 227 234 224 215 219 220 219 225 235 243 242 231 224 224 214 216 224 218 201 206 216 223 224 221 219 215 210 210 208 204 205 205 205 204 200 199 197 196 196 194 192 189 188 189 190 191 191 192 192 191 190 190 190 190 190 192 193 194 196 197 198 199 201 202 203 205 206 207 208 209 209 207 204 202 201 202 204 206 207 212 214 215 216 215 215 216 215 217 218 219 220 220 220 223 228 231
222 222 220 219 218 217 219 219 216 225 240 242 241 241 225 148 173 208 211 211 216 219 224 228 223 222 221 211 207 207 205 204 204 207 209 204 200 198 196 194 192 190 189 190 191 190 191 192 193 192 192 193 193 192 191 190 190 193 194 196 197 197 198 199 201 203 204 206 206 207 208 207 207 206 203 202 204 205 206 207 210 213 213 213 213 214 215 216 217 218 219 220 220 219 222 226 229